| time (UTC) | temp F | wind direction | speed MPH | gust MPH | rain 1hr in | rain 24hr in | rain mn in | humidity % | barometer mb |
| 20260510142055 | 64 | 358 | 8.0 | 10.0 | 0.00 | 0.00 | 0.00 | 58 | 1019.8 |
| 20260510141551 | 64 | 338 | 8.0 | 11.0 | 0.00 | 0.00 | 0.00 | 56 | 1019.8 |
| 20260510141049 | 63 | 89 | 1.0 | 9.0 | 0.00 | 0.00 | 0.00 | 61 | 1019.7 |
| 20260510140545 | 62 | 345 | 6.0 | 18.0 | 0.00 | 0.00 | 0.00 | 62 | 1019.7 |
| 20260510140045 | 62 | 354 | 7.0 | 12.0 | 0.00 | 0.00 | 0.00 | 64 | 1019.3 |
| 20260510135541 | 62 | 28 | 7.0 | 12.0 | 0.00 | 0.00 | 0.00 | 65 | 1019.5 |
| 20260510135037 | 62 | 27 | 6.0 | 14.0 | 0.00 | 0.00 | 0.00 | 66 | 1019.1 |
| 20260510134534 | 63 | 53 | 5.0 | 6.0 | 0.00 | 0.00 | 0.00 | 65 | 1019.0 |
| 20260510134031 | 63 | 49 | 4.0 | 6.0 | 0.00 | 0.00 | 0.00 | 67 | 1019.1 |
| 20260510133527 | 63 | 4 | 2.0 | 8.0 | 0.00 | 0.00 | 0.00 | 69 | 1018.9 |
| 20260510133023 | 63 | 342 | 3.0 | 9.0 | 0.00 | 0.00 | 0.00 | 70 | 1018.8 |
| 20260510132520 | 63 | 6 | 2.0 | 6.0 | 0.00 | 0.00 | 0.00 | 72 | 1018.7 |
| 20260510132017 | 63 | 75 | 2.0 | 8.0 | 0.00 | 0.00 | 0.00 | 73 | 1018.6 |
| 20260510131515 | 63 | 26 | 4.0 | 6.0 | 0.00 | 0.00 | 0.00 | 74 | 1018.8 |
| 20260510131012 | 62 | 24 | 3.0 | 13.0 | 0.00 | 0.00 | 0.00 | 75 | 1018.6 |
| 20260510130508 | 62 | 354 | 3.0 | 6.0 | 0.00 | 0.00 | 0.00 | 77 | 1018.4 |
| 20260510130006 | 61 | 44 | 4.0 | 13.0 | 0.00 | 0.00 | 0.00 | 77 | 1018.3 |
| 20260510125501 | 61 | 19 | 7.0 | 8.0 | 0.00 | 0.00 | 0.00 | 79 | 1018.6 |
| 20260510124958 | 61 | 10 | 5.0 | 8.0 | 0.00 | 0.00 | 0.00 | 80 | 1018.4 |
| 20260510124454 | 60 | 15 | 5.0 | 10.0 | 0.00 | 0.00 | 0.00 | 81 | 1018.0 |
| 20260510123951 | 60 | 348 | 3.0 | 11.0 | 0.00 | 0.00 | 0.00 | 82 | 1018.1 |
| 20260510123447 | 60 | 354 | 6.0 | 8.0 | 0.00 | 0.00 | 0.00 | 82 | 1018.1 |
| 20260510122943 | 60 | 13 | 7.0 | 10.0 | 0.00 | 0.00 | 0.00 | 82 | 1018.0 |
| 20260510122439 | 60 | 0 | 6.0 | 10.0 | 0.00 | 0.00 | 0.00 | 82 | 1018.0 |
| 20260510121935 | 60 | 6 | 7.0 | 11.0 | 0.00 | 0.00 | 0.00 | 82 | 1017.8 |
| 20260510121432 | 60 | 349 | 5.0 | 10.0 | 0.00 | 0.00 | 0.00 | 84 | 1018.0 |
| 20260510120930 | 60 | 0 | 6.0 | 10.0 | 0.00 | 0.00 | 0.00 | 86 | 1018.1 |
| 20260510120427 | 59 | 345 | 6.0 | 9.0 | 0.00 | 0.00 | 0.00 | 87 | 1017.7 |
| 20260510115923 | 59 | 15 | 3.0 | 8.0 | 0.00 | 0.00 | 0.00 | 87 | 1017.7 |
| 20260510115420 | 59 | 24 | 4.0 | 6.0 | 0.00 | 0.00 | 0.00 | 87 | 1017.6 |
| 20260510114915 | 59 | 319 | 3.0 | 5.0 | 0.00 | 0.00 | 0.00 | 88 | 1017.3 |
| 20260510114414 | 59 | 348 | 4.0 | 5.0 | 0.00 | 0.00 | 0.00 | 88 | 1017.4 |
| 20260510113914 | 59 | 5 | 2.0 | 5.0 | 0.00 | 0.00 | 0.00 | 88 | 1017.2 |
| 20260510113409 | 59 | 350 | 3.0 | 6.0 | 0.00 | 0.00 | 0.00 | 88 | 1017.2 |
| 20260510112907 | 59 | 337 | 2.0 | 3.0 | 0.00 | 0.00 | 0.00 | 87 | 1017.0 |
| 20260510112404 | 59 | 348 | 2.0 | 4.0 | 0.00 | 0.00 | 0.00 | 86 | 1017.0 |
| 20260510111900 | 59 | 350 | 3.0 | 6.0 | 0.00 | 0.00 | 0.00 | 86 | 1016.8 |
| 20260510111356 | 59 | 0 | 3.0 | 4.0 | 0.00 | 0.00 | 0.00 | 86 | 1016.9 |
| 20260510110852 | 59 | 352 | 4.0 | 6.0 | 0.00 | 0.00 | 0.00 | 86 | 1016.9 |
| 20260510110349 | 59 | 345 | 2.0 | 4.0 | 0.00 | 0.00 | 0.00 | 86 | 1016.8 |
| 20260510105845 | 59 | 349 | 2.0 | 4.0 | 0.00 | 0.00 | 0.00 | 85 | 1017.0 |
| 20260510105344 | 59 | 330 | 3.0 | 4.0 | 0.00 | 0.00 | 0.00 | 85 | 1016.8 |
| 20260510104841 | 59 | 336 | 2.0 | 6.0 | 0.00 | 0.00 | 0.00 | 84 | 1016.7 |
| 20260510104338 | 60 | 9 | 4.0 | 6.0 | 0.00 | 0.00 | 0.00 | 83 | 1016.4 |
| 20260510103834 | 60 | 2 | 4.0 | 9.0 | 0.00 | 0.00 | 0.00 | 83 | 1016.5 |
| 20260510103331 | 59 | 8 | 3.0 | 6.0 | 0.00 | 0.00 | 0.00 | 82 | 1016.4 |
| 20260510102827 | 60 | 348 | 2.0 | 4.0 | 0.00 | 0.00 | 0.00 | 82 | 1016.1 |
| 20260510102323 | 60 | 347 | 3.0 | 3.0 | 0.00 | 0.00 | 0.00 | 81 | 1016.1 |
| 20260510101820 | 60 | 319 | 4.0 | 6.0 | 0.00 | 0.00 | 0.00 | 81 | 1016.1 |
| 20260510101318 | 59 | 13 | 5.0 | 6.0 | 0.00 | 0.00 | 0.00 | 81 | 1016.2 |
| 20260510100814 | 59 | 0 | 3.0 | 8.0 | 0.00 | 0.00 | 0.00 | 81 | 1016.2 |
| 20260510100313 | 57 | 5 | 2.0 | 3.0 | 0.00 | 0.00 | 0.00 | 82 | 1016.1 |
| 20260510095808 | 57 | 349 | 2.0 | 3.0 | 0.00 | 0.00 | 0.00 | 82 | 1016.0 |
| 20260510095305 | 57 | 325 | 1.0 | 2.0 | 0.00 | 0.00 | 0.00 | 81 | 1015.9 |
| 20260510094802 | 57 | 327 | 2.0 | 2.0 | 0.00 | 0.00 | 0.00 | 81 | 1015.8 |
| 20260510094257 | 58 | 260 | 1.0 | 2.0 | 0.00 | 0.00 | 0.00 | 82 | 1015.7 |
| 20260510093753 | 58 | 246 | 0.0 | 1.0 | 0.00 | 0.00 | 0.00 | 82 | 1015.6 |
| 20260510093251 | 58 | 14 | 0.0 | 2.0 | 0.00 | 0.00 | 0.00 | 81 | 1015.3 |
| 20260510092747 | 58 | 322 | 0.0 | 0.0 | 0.00 | 0.00 | 0.00 | 78 | 1015.4 |
| 20260510092243 | 58 | 230 | 0.0 | 0.0 | 0.00 | 0.00 | 0.00 | 78 | 1015.4 |
| 20260510091738 | 59 | 186 | 0.0 | 0.0 | 0.00 | 0.00 | 0.00 | 77 | 1015.3 |
| 20260510091236 | 58 | 203 | 0.0 | 2.0 | 0.00 | 0.00 | 0.00 | 78 | 1015.4 |
| 20260510090732 | 58 | 287 | 0.0 | 0.0 | 0.00 | 0.00 | 0.00 | 80 | 1015.3 |
| 20260510090229 | 57 | 157 | 0.0 | 0.0 | 0.00 | 0.00 | 0.00 | 79 | 1015.3 |
| 20260510085725 | 59 | 124 | 0.0 | 2.0 | 0.00 | 0.00 | 0.00 | 79 | 1015.3 |
| 20260510085219 | 60 | 326 | 0.0 | 2.0 | 0.00 | 0.00 | 0.00 | 74 | 1015.3 |
| 20260510084715 | 59 | 13 | 2.0 | 2.0 | 0.00 | 0.00 | 0.00 | 74 | 1015.2 |
| 20260510084213 | 59 | 309 | 1.0 | 1.0 | 0.00 | 0.00 | 0.00 | 74 | 1015.3 |
| 20260510083709 | 59 | 328 | 0.0 | 2.0 | 0.00 | 0.00 | 0.00 | 75 | 1015.4 |
| 20260510083207 | 59 | 242 | 2.0 | 2.0 | 0.00 | 0.00 | 0.00 | 75 | 1015.2 |
| 20260510082702 | 59 | 263 | 1.0 | 2.0 | 0.00 | 0.00 | 0.00 | 76 | 1015.4 |
| 20260510082158 | 60 | 271 | 2.0 | 2.0 | 0.00 | 0.00 | 0.00 | 71 | 1015.2 |
| 20260510081653 | 60 | 291 | 1.0 | 3.0 | 0.00 | 0.00 | 0.00 | 72 | 1015.4 |
| 20260510081149 | 59 | 265 | 2.0 | 2.0 | 0.00 | 0.00 | 0.00 | 74 | 1015.1 |
| 20260510080648 | 58 | 293 | 0.0 | 2.0 | 0.00 | 0.00 | 0.00 | 77 | 1015.1 |
| 20260510080146 | 57 | 7 | 2.0 | 3.0 | 0.00 | 0.00 | 0.00 | 81 | 1014.8 |
| 20260510075642 | 59 | 5 | 2.0 | 2.0 | 0.00 | 0.00 | 0.00 | 75 | 1014.7 |
| 20260510075140 | 59 | 24 | 0.0 | 2.0 | 0.00 | 0.00 | 0.00 | 73 | 1014.9 |
| 20260510074637 | 59 | 268 | 1.0 | 2.0 | 0.00 | 0.00 | 0.00 | 75 | 1014.6 |
| 20260510074132 | 58 | 322 | 0.0 | 2.0 | 0.00 | 0.00 | 0.00 | 77 | 1014.8 |
| 20260510073629 | 59 | 334 | 2.0 | 3.0 | 0.00 | 0.00 | 0.00 | 74 | 1014.8 |
| 20260510073125 | 61 | 347 | 0.0 | 1.0 | 0.00 | 0.00 | 0.00 | 68 | 1014.6 |
| 20260510072622 | 62 | 311 | 0.0 | 2.0 | 0.00 | 0.00 | 0.00 | 65 | 1014.7 |
| 20260510072118 | 62 | 322 | 0.0 | 1.0 | 0.00 | 0.00 | 0.00 | 66 | 1014.8 |
| 20260510071614 | 63 | 246 | 0.0 | 0.0 | 0.00 | 0.00 | 0.00 | 68 | 1014.8 |
| 20260510071112 | 63 | 263 | 2.0 | 3.0 | 0.00 | 0.00 | 0.00 | 66 | 1014.8 |
| 20260510070608 | 63 | 165 | 0.0 | 2.0 | 0.00 | 0.00 | 0.00 | 67 | 1014.7 |
| 20260510070107 | 63 | 269 | 0.0 | 2.0 | 0.00 | 0.00 | 0.00 | 69 | 1015.0 |
| 20260510065602 | 63 | 147 | 0.0 | 1.0 | 0.00 | 0.00 | 0.00 | 64 | 1014.9 |
| 20260510065059 | 63 | 240 | 0.0 | 3.0 | 0.00 | 0.00 | 0.00 | 64 | 1015.0 |
| 20260510064555 | 64 | 352 | 0.0 | 0.0 | 0.00 | 0.00 | 0.00 | 63 | 1015.1 |
| 20260510064051 | 65 | 261 | 0.0 | 2.0 | 0.00 | 0.00 | 0.00 | 58 | 1015.1 |
| 20260510063549 | 66 | 254 | 2.0 | 3.0 | 0.00 | 0.00 | 0.00 | 57 | 1015.1 |
| 20260510063045 | 66 | 267 | 2.0 | 4.0 | 0.00 | 0.00 | 0.00 | 57 | 1015.1 |
| 20260510062541 | 66 | 232 | 3.0 | 6.0 | 0.00 | 0.00 | 0.00 | 59 | 1015.1 |
| 20260510062037 | 66 | 242 | 3.0 | 4.0 | 0.00 | 0.00 | 0.00 | 57 | 1015.3 |
| 20260510061533 | 66 | 234 | 2.0 | 3.0 | 0.00 | 0.00 | 0.00 | 57 | 1015.2 |
| 20260510061030 | 66 | 229 | 3.0 | 4.0 | 0.00 | 0.00 | 0.00 | 56 | 1015.1 |
| 20260510060526 | 65 | 220 | 1.0 | 3.0 | 0.00 | 0.00 | 0.00 | 59 | 1015.2 |
| 20260510060023 | 64 | 246 | 1.0 | 3.0 | 0.00 | 0.00 | 0.00 | 63 | 1015.2 |
| 20260510055519 | 63 | 210 | 1.0 | 2.0 | 0.00 | 0.00 | 0.00 | 66 | 1015.2 |
| 20260510055017 | 64 | 180 | 0.0 | 1.0 | 0.00 | 0.00 | 0.00 | 67 | 1015.2 |
| 20260510054513 | 63 | 191 | 0.0 | 2.0 | 0.00 | 0.00 | 0.00 | 68 | 1015.3 |
| 20260510054008 | 63 | 340 | 1.0 | 5.0 | 0.00 | 0.00 | 0.00 | 70 | 1015.5 |
| 20260510053502 | 61 | 317 | 5.0 | 12.0 | 0.00 | 0.00 | 0.00 | 70 | 1015.4 |
| 20260510053000 | 61 | 225 | 4.0 | 5.0 | 0.00 | 0.00 | 0.00 | 78 | 1015.1 |
| 20260510052456 | 60 | 1 | 5.0 | 10.0 | 0.00 | 0.00 | 0.00 | 79 | 1015.2 |
| 20260510051952 | 60 | 356 | 2.0 | 2.0 | 0.00 | 0.00 | 0.00 | 76 | 1014.7 |
| 20260510051448 | 63 | 307 | 1.0 | 2.0 | 0.00 | 0.00 | 0.00 | 74 | 1014.5 |
| 20260510050944 | 61 | 269 | 0.0 | 3.0 | 0.00 | 0.00 | 0.00 | 75 | 1014.4 |
| 20260510050441 | 59 | 326 | 0.0 | 2.0 | 0.00 | 0.00 | 0.00 | 83 | 1014.3 |
| 20260510045939 | 58 | 240 | 0.0 | 2.0 | 0.00 | 0.01 | 0.01 | 89 | 1014.1 |
| 20260510045436 | 58 | 154 | 0.0 | 3.0 | 0.00 | 0.01 | 0.01 | 88 | 1014.0 |
| 20260510044932 | 58 | 146 | 1.0 | 2.0 | 0.00 | 0.01 | 0.01 | 90 | 1014.0 |
| 20260510044429 | 58 | 129 | 0.0 | 3.0 | 0.00 | 0.01 | 0.01 | 90 | 1013.9 |
| 20260510043926 | 58 | 103 | 0.0 | 0.0 | 0.00 | 0.01 | 0.01 | 89 | 1014.0 |
| 20260510043422 | 59 | 131 | 4.0 | 5.0 | 0.00 | 0.01 | 0.01 | 90 | 1014.1 |
| 20260510042920 | 59 | 89 | 0.0 | 0.0 | 0.00 | 0.01 | 0.01 | 90 | 1013.9 |
| 20260510042416 | 59 | 230 | 0.0 | 0.0 | 0.00 | 0.01 | 0.01 | 91 | 1014.0 |
| 20260510041912 | 58 | 212 | 0.0 | 0.0 | 0.00 | 0.01 | 0.01 | 90 | 1013.9 |
| 20260510041409 | 58 | 135 | 0.0 | 0.0 | 0.00 | 0.01 | 0.01 | 89 | 1013.8 |
| 20260510040907 | 58 | 76 | 0.0 | 0.0 | 0.00 | 0.01 | 0.01 | 89 | 1013.7 |
| 20260510040404 | 59 | 37 | 0.0 | 0.0 | 0.00 | 0.01 | 0.01 | 88 | 1013.7 |
| 20260510035859 | 59 | 38 | 0.0 | 0.0 | 0.00 | 0.01 | 0.01 | 87 | 1013.9 |
| 20260510035355 | 59 | 353 | 0.0 | 0.0 | 0.00 | 0.01 | 0.01 | 87 | 1013.9 |
| 20260510034851 | 59 | 353 | 0.0 | 1.0 | 0.00 | 0.01 | 0.01 | 87 | 1013.9 |
| 20260510034349 | 59 | 0 | 0.0 | 0.0 | 0.00 | 0.01 | 0.01 | 86 | 1013.9 |
| 20260510033845 | 59 | 66 | 0.0 | 0.0 | 0.00 | 0.01 | 0.01 | 87 | 1013.8 |
| 20260510033341 | 59 | 38 | 0.0 | 1.0 | 0.00 | 0.01 | 0.01 | 87 | 1013.7 |
| 20260510032838 | 59 | 37 | 0.0 | 0.0 | 0.00 | 0.01 | 0.01 | 86 | 1013.7 |
| 20260510032335 | 60 | 316 | 1.0 | 1.0 | 0.00 | 0.01 | 0.01 | 85 | 1013.7 |
| 20260510031831 | 59 | 345 | 1.0 | 2.0 | 0.00 | 0.01 | 0.01 | 84 | 1013.7 |
| 20260510031327 | 59 | 0 | 0.0 | 0.0 | 0.00 | 0.01 | 0.01 | 84 | 1013.7 |
| 20260510030826 | 60 | 336 | 0.0 | 1.0 | 0.00 | 0.01 | 0.01 | 85 | 1013.6 |
| 20260510030323 | 61 | 269 | 0.0 | 0.0 | 0.00 | 0.01 | 0.01 | 84 | 1013.6 |
| 20260510025820 | 61 | 214 | 0.0 | 2.0 | 0.00 | 0.01 | 0.01 | 84 | 1013.2 |
| 20260510025318 | 62 | 326 | 0.0 | 0.0 | 0.00 | 0.01 | 0.01 | 82 | 1013.3 |
| 20260510024814 | 62 | 326 | 0.0 | 0.0 | 0.00 | 0.01 | 0.01 | 81 | 1013.3 |
| 20260510024312 | 63 | 331 | 0.0 | 0.0 | 0.00 | 0.01 | 0.01 | 80 | 1013.3 |
| 20260510023808 | 63 | 224 | 0.0 | 0.0 | 0.00 | 0.01 | 0.01 | 77 | 1013.0 |
| 20260510023304 | 64 | 224 | 0.0 | 0.0 | 0.00 | 0.01 | 0.01 | 79 | 1012.9 |
| 20260510022801 | 64 | 229 | 0.0 | 1.0 | 0.00 | 0.01 | 0.01 | 76 | 1013.0 |
| 20260510022301 | 65 | 235 | 0.0 | 0.0 | 0.00 | 0.01 | 0.01 | 73 | 1012.8 |
| 20260510021800 | 65 | 235 | 0.0 | 1.0 | 0.00 | 0.01 | 0.01 | 73 | 1012.7 |
| 20260510021258 | 66 | 142 | 0.0 | 0.0 | 0.00 | 0.01 | 0.01 | 70 | 1012.5 |
| 20260510020754 | 66 | 142 | 0.0 | 0.0 | 0.00 | 0.01 | 0.01 | 69 | 1012.5 |
| 20260510020253 | 67 | 142 | 0.0 | 0.0 | 0.00 | 0.01 | 0.01 | 67 | 1012.5 |
| 20260510015750 | 67 | 129 | 0.0 | 0.0 | 0.00 | 0.01 | 0.01 | 65 | 1012.3 |
| 20260510015246 | 66 | 129 | 0.0 | 0.0 | 0.00 | 0.01 | 0.01 | 67 | 1012.4 |
| 20260510014741 | 67 | 129 | 0.0 | 0.0 | 0.00 | 0.01 | 0.01 | 66 | 1012.2 |
| 20260510014239 | 68 | 129 | 0.0 | 0.0 | 0.00 | 0.01 | 0.01 | 64 | 1012.2 |
| 20260510013735 | 68 | 129 | 0.0 | 0.0 | 0.00 | 0.01 | 0.01 | 63 | 1012.1 |
| 20260510013230 | 68 | 142 | 0.0 | 0.0 | 0.00 | 0.01 | 0.01 | 61 | 1012.1 |
| 20260510012725 | 69 | 166 | 0.0 | 0.0 | 0.00 | 0.01 | 0.01 | 59 | 1012.1 |
| 20260510012220 | 69 | 166 | 0.0 | 0.0 | 0.00 | 0.01 | 0.01 | 58 | 1012.2 |
| 20260510011715 | 69 | 142 | 0.0 | 0.0 | 0.00 | 0.01 | 0.01 | 57 | 1012.0 |
| 20260510011211 | 69 | 129 | 0.0 | 1.0 | 0.00 | 0.01 | 0.01 | 55 | 1012.0 |
| 20260510010707 | 69 | 13 | 0.0 | 0.0 | 0.00 | 0.01 | 0.01 | 55 | 1011.9 |
| 20260510010204 | 70 | 13 | 0.0 | 0.0 | 0.00 | 0.01 | 0.01 | 55 | 1011.9 |
| 20260510005701 | 71 | 243 | 0.0 | 0.0 | 0.00 | 0.01 | 0.01 | 57 | 1011.8 |
| 20260510005157 | 71 | 242 | 0.0 | 1.0 | 0.00 | 0.01 | 0.01 | 53 | 1011.8 |
| 20260510004655 | 72 | 230 | 0.0 | 0.0 | 0.00 | 0.01 | 0.01 | 52 | 1011.6 |
| 20260510004153 | 73 | 229 | 0.0 | 0.0 | 0.00 | 0.01 | 0.01 | 53 | 1011.6 |
| 20260510003650 | 74 | 229 | 0.0 | 0.0 | 0.00 | 0.01 | 0.01 | 52 | 1011.5 |
| 20260510003146 | 74 | 242 | 0.0 | 0.0 | 0.00 | 0.01 | 0.01 | 47 | 1011.5 |
| 20260510002646 | 75 | 242 | 0.0 | 1.0 | 0.00 | 0.01 | 0.01 | 48 | 1011.5 |
| 20260510002143 | 76 | 269 | 0.0 | 3.0 | 0.00 | 0.01 | 0.01 | 47 | 1011.6 |
| 20260510001640 | 76 | 254 | 3.0 | 3.0 | 0.00 | 0.01 | 0.01 | 44 | 1011.5 |
| 20260510001138 | 76 | 246 | 4.0 | 4.0 | 0.00 | 0.01 | 0.01 | 42 | 1011.4 |
| 20260510000638 | 77 | 256 | 2.0 | 4.0 | 0.00 | 0.01 | 0.01 | 45 | 1011.4 |
| 20260510000136 | 77 | 245 | 3.0 | 3.0 | 0.00 | 0.01 | 0.01 | 40 | 1011.4 |
| 20260509235632 | 78 | 269 | 1.0 | 2.0 | 0.00 | 0.01 | 0.01 | 41 | 1011.4 |
| 20260509235129 | 78 | 233 | 2.0 | 4.0 | 0.00 | 0.01 | 0.01 | 41 | 1011.5 |
| 20260509234625 | 78 | 266 | 2.0 | 3.0 | 0.00 | 0.01 | 0.01 | 43 | 1011.3 |
| 20260509234123 | 78 | 249 | 2.0 | 3.0 | 0.00 | 0.01 | 0.01 | 42 | 1011.3 |
| 20260509233620 | 79 | 258 | 5.0 | 5.0 | 0.00 | 0.01 | 0.01 | 39 | 1011.2 |
| 20260509233118 | 79 | 253 | 2.0 | 6.0 | 0.00 | 0.01 | 0.01 | 41 | 1011.1 |
| 20260509232614 | 79 | 239 | 2.0 | 4.0 | 0.00 | 0.01 | 0.01 | 37 | 1011.4 |
| 20260509232111 | 79 | 268 | 2.0 | 3.0 | 0.00 | 0.01 | 0.01 | 37 | 1011.1 |
| 20260509231607 | 79 | 240 | 5.0 | 8.0 | 0.00 | 0.01 | 0.01 | 35 | 1011.3 |
| 20260509231105 | 80 | 223 | 2.0 | 5.0 | 0.00 | 0.01 | 0.01 | 38 | 1011.4 |
| 20260509230602 | 80 | 249 | 5.0 | 5.0 | 0.00 | 0.01 | 0.01 | 39 | 1011.4 |
| 20260509230059 | 80 | 245 | 5.0 | 9.0 | 0.00 | 0.01 | 0.01 | 36 | 1011.4 |
| 20260509225554 | 82 | 247 | 6.0 | 6.0 | 0.00 | 0.01 | 0.01 | 36 | 1011.4 |
| 20260509225050 | 83 | 280 | 2.0 | 3.0 | 0.00 | 0.01 | 0.01 | 35 | 1011.3 |
| 20260509224546 | 82 | 311 | 3.0 | 7.0 | 0.00 | 0.01 | 0.01 | 34 | 1011.3 |
| 20260509224043 | 82 | 253 | 3.0 | 5.0 | 0.00 | 0.01 | 0.01 | 36 | 1011.3 |
| 20260509223540 | 81 | 276 | 1.0 | 6.0 | 0.00 | 0.01 | 0.01 | 33 | 1011.3 |
| 20260509223038 | 82 | 246 | 4.0 | 6.0 | 0.00 | 0.01 | 0.01 | 35 | 1011.1 |
| 20260509222533 | 82 | 242 | 4.0 | 6.0 | 0.00 | 0.01 | 0.01 | 33 | 1011.2 |
| 20260509222029 | 82 | 287 | 2.0 | 5.0 | 0.00 | 0.01 | 0.01 | 34 | 1011.2 |
| 20260509221525 | 83 | 297 | 2.0 | 4.0 | 0.00 | 0.01 | 0.01 | 36 | 1010.8 |
| 20260509221021 | 82 | 301 | 2.0 | 11.0 | 0.00 | 0.01 | 0.01 | 33 | 1011.1 |
| 20260509220518 | 83 | 322 | 2.0 | 4.0 | 0.00 | 0.01 | 0.01 | 33 | 1011.0 |
| 20260509220014 | 83 | 224 | 3.0 | 3.0 | 0.00 | 0.01 | 0.01 | 33 | 1011.0 |
| 20260509215509 | 82 | 333 | 0.0 | 5.0 | 0.00 | 0.01 | 0.01 | 33 | 1011.2 |
| 20260509215007 | 82 | 257 | 5.0 | 6.0 | 0.00 | 0.01 | 0.01 | 34 | 1011.0 |
| 20260509214504 | 82 | 317 | 2.0 | 6.0 | 0.00 | 0.01 | 0.01 | 34 | 1011.0 |
| 20260509214001 | 81 | 249 | 8.0 | 11.0 | 0.00 | 0.01 | 0.01 | 34 | 1011.1 |
| 20260509213457 | 81 | 228 | 3.0 | 9.0 | 0.00 | 0.01 | 0.01 | 34 | 1011.1 |
| 20260509212954 | 82 | 278 | 3.0 | 5.0 | 0.00 | 0.01 | 0.01 | 33 | 1011.0 |
| 20260509212451 | 82 | 4 | 3.0 | 7.0 | 0.00 | 0.01 | 0.01 | 33 | 1011.2 |
| 20260509211947 | 83 | 311 | 2.0 | 5.0 | 0.00 | 0.01 | 0.01 | 32 | 1011.2 |
| 20260509211443 | 83 | 278 | 3.0 | 5.0 | 0.00 | 0.01 | 0.01 | 36 | 1011.3 |
| 20260509210940 | 83 | 256 | 3.0 | 5.0 | 0.00 | 0.01 | 0.01 | 32 | 1011.3 |
| 20260509210437 | 81 | 244 | 5.0 | 10.0 | 0.00 | 0.01 | 0.01 | 33 | 1011.5 |
| 20260509205932 | 82 | 261 | 6.0 | 6.0 | 0.00 | 0.01 | 0.01 | 34 | 1011.4 |
| 20260509205427 | 82 | 282 | 3.0 | 5.0 | 0.00 | 0.01 | 0.01 | 33 | 1011.5 |
| 20260509204923 | 81 | 237 | 7.0 | 9.0 | 0.00 | 0.01 | 0.01 | 33 | 1011.4 |
| 20260509204419 | 82 | 251 | 3.0 | 8.0 | 0.00 | 0.01 | 0.01 | 35 | 1011.5 |
| 20260509203916 | 81 | 271 | 6.0 | 11.0 | 0.00 | 0.01 | 0.01 | 34 | 1011.6 |
| 20260509203412 | 82 | 356 | 8.0 | 9.0 | 0.00 | 0.01 | 0.01 | 32 | 1011.6 |
| 20260509202910 | 81 | 248 | 11.0 | 13.0 | 0.00 | 0.01 | 0.01 | 34 | 1011.7 |
| 20260509202405 | 81 | 3 | 3.0 | 11.0 | 0.00 | 0.01 | 0.01 | 35 | 1011.7 |
| 20260509201901 | 82 | 247 | 4.0 | 9.0 | 0.00 | 0.01 | 0.01 | 34 | 1011.8 |
| 20260509201356 | 80 | 222 | 4.0 | 9.0 | 0.00 | 0.01 | 0.01 | 34 | 1011.8 |
| 20260509200854 | 81 | 288 | 4.0 | 10.0 | 0.00 | 0.01 | 0.01 | 36 | 1011.8 |
| 20260509200354 | 81 | 41 | 3.0 | 9.0 | 0.00 | 0.01 | 0.01 | 35 | 1011.9 |
| 20260509195851 | 82 | 0 | 6.0 | 8.0 | 0.00 | 0.01 | 0.01 | 34 | 1011.8 |
| 20260509195351 | 80 | 249 | 4.0 | 7.0 | 0.00 | 0.01 | 0.01 | 38 | 1011.9 |
| 20260509194851 | 81 | 6 | 2.0 | 6.0 | 0.00 | 0.01 | 0.01 | 36 | 1012.0 |
| 20260509194347 | 81 | 256 | 6.0 | 7.0 | 0.00 | 0.01 | 0.01 | 37 | 1011.9 |
| 20260509193844 | 81 | 252 | 6.0 | 7.0 | 0.00 | 0.01 | 0.01 | 36 | 1012.0 |
| 20260509193344 | 80 | 247 | 5.0 | 9.0 | 0.00 | 0.01 | 0.01 | 38 | 1012.0 |
| 20260509192840 | 80 | 230 | 8.0 | 12.0 | 0.00 | 0.01 | 0.01 | 36 | 1011.8 |
| 20260509192336 | 79 | 247 | 6.0 | 14.0 | 0.00 | 0.01 | 0.01 | 39 | 1011.7 |
| 20260509191831 | 79 | 251 | 5.0 | 10.0 | 0.00 | 0.01 | 0.01 | 38 | 1011.8 |
| 20260509191327 | 80 | 256 | 5.0 | 12.0 | 0.00 | 0.01 | 0.01 | 40 | 1011.8 |
| 20260509190824 | 80 | 272 | 3.0 | 10.0 | 0.00 | 0.01 | 0.01 | 39 | 1011.9 |
| 20260509190321 | 80 | 249 | 7.0 | 9.0 | 0.00 | 0.01 | 0.01 | 40 | 1012.0 |
| 20260509185818 | 80 | 256 | 9.0 | 10.0 | 0.00 | 0.01 | 0.01 | 37 | 1012.0 |
| 20260509185314 | 80 | 272 | 4.0 | 8.0 | 0.00 | 0.01 | 0.01 | 37 | 1012.0 |
| 20260509184812 | 79 | 218 | 6.0 | 10.0 | 0.00 | 0.01 | 0.01 | 40 | 1011.9 |
| 20260509184309 | 79 | 259 | 4.0 | 9.0 | 0.00 | 0.01 | 0.01 | 41 | 1011.9 |
| 20260509183806 | 79 | 254 | 8.0 | 12.0 | 0.00 | 0.01 | 0.01 | 41 | 1011.9 |
| 20260509183301 | 80 | 290 | 5.0 | 6.0 | 0.00 | 0.01 | 0.01 | 43 | 1012.1 |
| 20260509182756 | 79 | 356 | 3.0 | 8.0 | 0.00 | 0.01 | 0.01 | 42 | 1012.0 |
| 20260509182254 | 80 | 259 | 9.0 | 11.0 | 0.00 | 0.01 | 0.01 | 41 | 1012.0 |
| 20260509181751 | 79 | 326 | 3.0 | 7.0 | 0.00 | 0.01 | 0.01 | 46 | 1012.0 |
| 20260509181249 | 79 | 293 | 2.0 | 9.0 | 0.00 | 0.01 | 0.01 | 44 | 1011.9 |
| 20260509180746 | 78 | 40 | 4.0 | 11.0 | 0.00 | 0.01 | 0.01 | 44 | 1012.0 |
| 20260509180242 | 77 | 252 | 10.0 | 12.0 | 0.00 | 0.01 | 0.01 | 44 | 1012.1 |
| 20260509175738 | 78 | 224 | 8.0 | 9.0 | 0.00 | 0.01 | 0.01 | 43 | 1012.2 |
| 20260509175235 | 78 | 274 | 3.0 | 6.0 | 0.00 | 0.01 | 0.01 | 47 | 1012.2 |
| 20260509174731 | 77 | 338 | 7.0 | 13.0 | 0.00 | 0.01 | 0.01 | 43 | 1012.3 |
| 20260509174226 | 77 | 278 | 4.0 | 9.0 | 0.00 | 0.01 | 0.01 | 47 | 1012.2 |
| 20260509173723 | 76 | 257 | 7.0 | 14.0 | 0.00 | 0.01 | 0.01 | 44 | 1012.3 |
| 20260509173218 | 77 | 313 | 4.0 | 10.0 | 0.00 | 0.01 | 0.01 | 50 | 1012.4 |
| 20260509172715 | 76 | 255 | 4.0 | 7.0 | 0.00 | 0.01 | 0.01 | 50 | 1012.3 |
| 20260509172211 | 77 | 316 | 4.0 | 5.0 | 0.00 | 0.01 | 0.01 | 49 | 1012.4 |
| 20260509171707 | 75 | 243 | 6.0 | 11.0 | 0.00 | 0.01 | 0.01 | 51 | 1012.5 |
| 20260509171203 | 75 | 258 | 9.0 | 13.0 | 0.00 | 0.01 | 0.01 | 51 | 1012.3 |
| 20260509170700 | 75 | 256 | 5.0 | 12.0 | 0.00 | 0.01 | 0.01 | 51 | 1012.4 |
| 20260509170156 | 76 | 217 | 2.0 | 9.0 | 0.00 | 0.01 | 0.01 | 52 | 1012.6 |
| 20260509165654 | 75 | 347 | 2.0 | 6.0 | 0.00 | 0.01 | 0.01 | 52 | 1012.6 |
| 20260509165150 | 76 | 332 | 3.0 | 8.0 | 0.00 | 0.01 | 0.01 | 51 | 1012.6 |
| 20260509164646 | 75 | 271 | 3.0 | 4.0 | 0.00 | 0.01 | 0.01 | 56 | 1012.6 |
| 20260509164142 | 74 | 242 | 6.0 | 9.0 | 0.00 | 0.01 | 0.01 | 57 | 1012.5 |
| 20260509163640 | 75 | 263 | 6.0 | 7.0 | 0.00 | 0.01 | 0.01 | 56 | 1012.6 |
| 20260509163135 | 73 | 271 | 2.0 | 7.0 | 0.00 | 0.01 | 0.01 | 58 | 1012.6 |
| 20260509162633 | 74 | 260 | 2.0 | 5.0 | 0.00 | 0.01 | 0.01 | 59 | 1012.7 |
| 20260509162129 | 73 | 43 | 2.0 | 5.0 | 0.00 | 0.01 | 0.01 | 59 | 1012.5 |
| 20260509161625 | 73 | 358 | 4.0 | 6.0 | 0.00 | 0.01 | 0.01 | 58 | 1012.6 |
| 20260509161120 | 73 | 27 | 3.0 | 4.0 | 0.00 | 0.01 | 0.01 | 63 | 1012.6 |
| 20260509160616 | 71 | 308 | 2.0 | 6.0 | 0.00 | 0.01 | 0.01 | 63 | 1012.9 |
| 20260509160112 | 71 | 251 | 5.0 | 5.0 | 0.00 | 0.01 | 0.01 | 65 | 1012.7 |
| 20260509155608 | 71 | 314 | 2.0 | 5.0 | 0.00 | 0.01 | 0.01 | 66 | 1012.7 |
| 20260509155105 | 71 | 282 | 3.0 | 6.0 | 0.00 | 0.01 | 0.01 | 68 | 1012.5 |
| 20260509154600 | 71 | 9 | 4.0 | 5.0 | 0.00 | 0.01 | 0.01 | 67 | 1012.6 |
| 20260509154058 | 71 | 216 | 2.0 | 3.0 | 0.00 | 0.01 | 0.01 | 70 | 1012.6 |
| 20260509153555 | 69 | 244 | 2.0 | 3.0 | 0.00 | 0.01 | 0.01 | 72 | 1012.7 |
| 20260509153052 | 68 | 262 | 4.0 | 6.0 | 0.00 | 0.01 | 0.01 | 73 | 1012.6 |
| 20260509152548 | 69 | 247 | 5.0 | 6.0 | 0.00 | 0.01 | 0.01 | 72 | 1012.5 |
| 20260509152045 | 69 | 269 | 1.0 | 4.0 | 0.00 | 0.01 | 0.01 | 77 | 1012.7 |
| 20260509151541 | 68 | 257 | 5.0 | 6.0 | 0.00 | 0.01 | 0.01 | 78 | 1012.6 |
| 20260509151039 | 67 | 224 | 4.0 | 6.0 | 0.00 | 0.01 | 0.01 | 78 | 1012.7 |
| 20260509150536 | 67 | 290 | 2.0 | 5.0 | 0.00 | 0.01 | 0.01 | 78 | 1012.6 |
| 20260509150035 | 69 | 258 | 2.0 | 4.0 | 0.00 | 0.01 | 0.01 | 79 | 1012.4 |
| 20260509145530 | 66 | 240 | 3.0 | 4.0 | 0.00 | 0.01 | 0.01 | 83 | 1012.5 |
| 20260509145025 | 66 | 235 | 4.0 | 5.0 | 0.00 | 0.01 | 0.01 | 82 | 1012.4 |
| 20260509144522 | 65 | 254 | 5.0 | 6.0 | 0.00 | 0.01 | 0.01 | 84 | 1012.3 |
| 20260509144020 | 65 | 287 | 0.0 | 4.0 | 0.00 | 0.01 | 0.01 | 84 | 1012.4 |
| 20260509143516 | 64 | 222 | 3.0 | 4.0 | 0.00 | 0.01 | 0.01 | 85 | 1012.2 |
| 20260509143015 | 64 | 263 | 4.0 | 5.0 | 0.00 | 0.01 | 0.01 | 86 | 1012.3 |
| 20260509142510 | 63 | 265 | 1.0 | 4.0 | 0.00 | 0.01 | 0.01 | 87 | 1012.4 |